Location: Chuathbaluk
(61.5726°N, 159.2454°W)
Time: 04:52:40
(UTC+00:00)

FO-99 - Pass Details

Date: 22 January 2021
Orbit: 473 x 506 km, 97.2° (Epoch: 08 March)

Event Time Altitude Azimuth Distance (km) Brightness Sun altitude
Exits shadow 05:59:50 12° 351° (N) 1,562 ? -25.6°
Drops below altitude 10° 06:00:11 10° 350° (N) 1,706 ? -25.7°
Sets 06:02:17 0° 346° (NNW) 2,588 ? -25.9°
